Location: Lourdes
(43.1000°N, 0.0500°W)
Time: 13:12:37
(UTC+00:00)

Cosmos 1821 Rocket - Pass Details

Date: 30 November 2020
Orbit: 946 x 1004 km, 82.9° (Epoch: 26 January)

Event Time Altitude Azimuth Distance (km) Brightness Sun altitude
Rises 18:50:04 0° 349° (N) 3,674 7.1 -25.6°
Reaches altitude 10° 18:52:35 10° 347° (NNW) 2,731 6.4 -26.0°
Maximum altitude 18:58:46 65° 267° (W) 1,075 4.3 -27.2°
Drops below altitude 10° 19:05:00 10° 186° (S) 2,751 6.5 -28.3°
Sets 19:07:33 0° 184° (S) 3,702 7.1 -28.8°
